Date String (YYYY-MM-DD hh:mm:ss) UTC,Instrument flags,absolute air pressure of the measurement (hPa),sample flow rate (lpm),inlet stack bypass flow (lpm),air temperature of the measurement (°C),ambient temperature measured by the external sensor (°C),aerosol sample conditioner tube jacket temperature (°C),OPC LED temperature (°C),internal box temperature (°C),relative humidity of the measurement (%),span deviation,mass concentration of particles derived from Lorenz-Mie calculation of OPC scattering (μg/m³),mass concentration of particles derived from Lorenz-Mie calculation of OPC scattering (μg/m³),mass concentration of particles derived from Lorenz-Mie calculation of OPC scattering (μg/m³)
DateTimeUTC,F1_M11,P_M11,Q1_M11,Q2_M11,T1_M11,T2_M11,T3_M11,T4_M11,T5_M11,U1_M11,ZSPAN_M11,X0_M11,X2_M11,X1_M11
2023-05-31 00:00:00,SystemResetWarning,0826.9,5.01,000.00,029.3,027.7,000.0,037.7,030.9,18.9,0000.0,0018.17,0003.99,0002.53
2023-05-31 00:01:00,SystemResetWarning,0826.8,5.01,000.00,029.3,027.7,000.0,037.7,030.9,18.9,0000.0,0018.45,0003.98,0002.52
2023-05-31 00:02:00,SystemResetWarning,0826.9,5.00,000.00,029.3,027.7,000.0,037.7,030.9,18.9,0000.0,0018.03,0003.94,0002.51
2023-05-31 00:03:00,SystemResetWarning,0826.8,5.00,000.00,029.3,027.7,000.0,037.7,030.9,18.7,0000.0,0018.19,0003.91,0002.50
2023-05-31 00:04:00,SystemResetWarning,0826.8,4.99,000.00,029.3,027.7,000.0,037.7,030.9,18.8,0000.0,0017.92,0003.97,0002.52
2023-05-31 00:05:00,SystemResetWarning,0826.8,4.99,000.00,029.3,027.7,000.0,037.7,030.9,19.0,0000.0,0017.33,0003.98,0002.54
2023-05-31 00:06:00,SystemResetWarning,0826.7,5.00,000.00,029.3,027.7,000.0,037.7,030.9,19.1,0000.0,0017.36,0003.98,0002.54
2023-05-31 00:07:00,SystemResetWarning,0826.6,5.01,000.00,029.3,027.8,000.0,037.7,030.9,19.3,0000.0,0016.60,0003.91,0002.52
2023-05-31 00:08:00,SystemResetWarning,0826.6,5.01,000.00,029.3,027.8,000.0,037.7,030.9,19.2,0000.0,0016.05,0003.86,0002.49
2023-05-31 00:09:00,SystemResetWarning,0826.6,4.99,000.00,029.3,027.8,000.0,037.7,030.9,19.3,0000.0,0016.25,0003.86,0002.48
2023-05-31 00:10:00,SystemResetWarning,0826.6,4.99,000.00,029.3,027.8,000.0,037.7,030.9,19.6,0000.0,0016.35,0003.86,0002.46
2023-05-31 00:11:00,SystemResetWarning,0826.6,5.00,000.00,029.3,027.8,000.0,037.7,030.9,19.9,0000.0,0016.58,0003.91,0002.46
2023-05-31 00:12:00,SystemResetWarning,0826.5,5.01,000.00,029.3,027.8,000.0,037.7,030.9,19.9,0000.0,0016.59,0003.91,0002.47
2023-05-31 00:13:00,SystemResetWarning,0826.4,5.01,000.00,029.3,027.9,000.0,037.7,030.9,19.7,0000.0,0015.25,0003.88,0002.46
2023-05-31 00:14:00,SystemResetWarning,0826.4,5.01,000.00,029.3,027.9,000.0,037.7,030.9,19.5,0000.0,0014.43,0003.84,0002.46
2023-05-31 00:15:00,SystemResetWarning,0826.3,4.99,000.00,029.3,026.9,000.0,037.7,030.9,19.6,0000.0,0014.31,0003.81,0002.45
2023-05-31 00:16:00,SystemResetWarning,0826.4,4.99,000.00,029.3,025.4,000.0,037.6,030.7,19.6,0000.0,0014.00,0003.76,0002.47
2023-05-31 00:17:00,SystemResetWarning,0826.4,5.02,000.00,029.2,025.2,000.0,037.5,030.6,19.5,0000.0,0013.04,0003.72,0002.47
2023-05-31 00:18:00,SystemResetWarning,0826.4,5.01,000.00,029.2,025.5,000.0,037.5,030.5,19.2,0000.0,0013.34,0003.78,0002.49
2023-05-31 00:19:00,SystemResetWarning,0826.4,5.00,000.00,029.1,025.8,000.0,037.5,030.5,19.7,0000.0,0013.47,0003.79,0002.51
2023-05-31 00:20:00,SystemResetWarning,0826.4,5.01,000.00,029.1,026.1,000.0,037.5,030.6,19.5,0000.0,0012.31,0003.76,0002.53
2023-05-31 00:21:00,SystemResetWarning,0826.4,5.00,000.00,029.1,026.4,000.0,037.5,030.6,19.4,0000.0,0011.13,0003.75,0002.54
2023-05-31 00:22:00,SystemResetWarning,0826.4,5.00,000.00,029.1,026.7,000.0,037.5,030.6,19.7,0000.0,0010.01,0003.70,0002.56
2023-05-31 00:23:00,SystemResetWarning,0826.4,5.00,000.00,029.1,026.9,000.0,037.5,030.6,19.9,0000.0,0009.79,0003.69,0002.57
2023-05-31 00:24:00,SystemResetWarning,0826.4,5.00,000.00,029.1,027.0,000.0,037.5,030.7,19.6,0000.0,0010.48,0003.69,0002.58
2023-05-31 00:25:00,SystemResetWarning,0826.4,5.00,000.00,029.1,027.2,000.0,037.5,030.7,19.4,0000.0,0011.05,0003.68,0002.58
2023-05-31 00:26:00,SystemResetWarning,0826.4,4.99,000.00,029.1,027.3,000.0,037.5,030.7,19.4,0000.0,0011.07,0003.67,0002.58
2023-05-31 00:27:00,SystemResetWarning,0826.4,5.00,000.00,029.1,027.4,000.0,037.5,030.7,19.4,0000.0,0011.22,0003.67,0002.58
2023-05-31 00:28:00,SystemResetWarning,0826.4,5.00,000.00,029.1,027.4,000.0,037.5,030.7,19.4,0000.0,0010.99,0003.66,0002.57
2023-05-31 00:29:00,SystemResetWarning,0826.4,5.00,000.00,029.1,027.5,000.0,037.5,030.8,20.3,0000.0,0010.44,0003.64,0002.59
2023-05-31 00:30:00,SystemResetWarning,0826.4,5.00,000.00,029.1,027.6,000.0,037.5,030.8,20.0,0000.0,0009.90,0003.63,0002.61
2023-05-31 00:31:00,SystemResetWarning,0826.4,5.00,000.00,029.2,027.6,000.0,037.5,030.8,20.4,0000.0,0011.85,0003.66,0002.63
2023-05-31 00:32:00,SystemResetWarning,0826.3,5.00,000.00,029.2,027.7,000.0,037.5,030.8,19.6,0000.0,0012.51,0003.68,0002.66
2023-05-31 00:33:00,SystemResetWarning,0826.3,5.00,000.00,029.2,027.3,000.0,037.5,029.2,19.4,0000.0,0012.66,0003.71,0002.67
2023-05-31 00:34:00,SystemResetWarning,0826.4,4.99,000.00,029.2,027.8,000.0,037.5,030.9,20.2,0000.0,0013.65,0003.71,0002.66
2023-05-31 00:35:00,SystemResetWarning,0826.4,4.99,000.00,029.3,027.9,000.0,037.5,030.9,20.1,0000.0,0012.59,0003.72,0002.66
2023-05-31 00:36:00,SystemResetWarning,0826.4,5.00,000.00,029.3,027.9,000.0,037.6,030.9,19.7,0000.0,0012.00,0003.77,0002.67
2023-05-31 00:37:00,SystemResetWarning,0826.4,5.00,000.00,029.3,028.0,000.0,037.6,031.0,19.8,0000.0,0012.25,0003.83,0002.69
2023-05-31 00:38:00,SystemResetWarning,0826.4,5.00,000.00,029.3,028.0,000.0,037.6,031.0,19.5,0000.0,0013.45,0003.83,0002.69
2023-05-31 00:39:00,SystemResetWarning,0826.4,5.00,000.00,029.3,028.0,000.0,037.6,031.0,20.0,0000.0,0013.77,0003.85,0002.70
2023-05-31 00:40:00,SystemResetWarning,0826.4,5.00,000.00,029.4,028.1,000.0,037.6,031.0,19.9,0000.0,0014.14,0003.86,0002.70
2023-05-31 00:41:00,SystemResetWarning,0826.3,5.00,000.00,029.4,028.0,000.0,037.6,031.1,20.1,0000.0,0014.20,0003.86,0002.69
2023-05-31 00:42:00,SystemResetWarning,0826.4,4.99,000.00,029.4,026.6,000.0,037.6,030.9,20.0,0000.0,0014.08,0003.86,0002.69
2023-05-31 00:43:00,SystemResetWarning,0826.4,5.01,000.00,029.3,025.5,000.0,037.5,030.8,19.8,0000.0,0012.67,0003.82,0002.65
2023-05-31 00:44:00,SystemResetWarning,0826.4,5.01,000.00,029.3,025.6,000.0,037.5,030.6,18.6,0000.0,0013.54,0003.82,0002.64
2023-05-31 00:45:00,SystemResetWarning,0826.3,4.99,000.00,029.2,025.8,000.0,037.5,030.6,19.2,0000.0,0012.82,0003.85,0002.64
2023-05-31 00:46:00,SystemResetWarning,0826.3,5.00,000.00,029.2,026.2,000.0,037.5,030.7,19.7,0000.0,0012.91,0003.79,0002.62
2023-05-31 00:47:00,SystemResetWarning,0826.2,4.99,000.00,029.2,026.5,000.0,037.5,030.7,19.9,0000.0,0013.30,0003.74,0002.60
2023-05-31 00:48:00,SystemResetWarning,0826.2,4.99,000.00,029.2,026.7,000.0,037.5,030.7,20.3,0000.0,0013.15,0003.70,0002.60
2023-05-31 00:49:00,SystemResetWarning,0826.2,4.99,000.00,029.2,027.0,000.0,037.5,030.8,20.1,0000.0,0011.86,0003.64,0002.59
2023-05-31 00:50:00,SystemResetWarning,0826.2,5.00,000.00,029.2,027.1,000.0,037.5,030.8,20.2,0000.0,0011.50,0003.61,0002.57
2023-05-31 00:51:00,SystemResetWarning,0826.2,5.00,000.00,029.2,027.3,000.0,037.5,030.8,19.8,0000.0,0011.34,0003.62,0002.57
2023-05-31 00:52:00,SystemResetWarning,0826.2,5.00,000.00,029.2,027.4,000.0,037.5,030.8,19.9,0000.0,0011.47,0003.64,0002.57
2023-05-31 00:53:00,SystemResetWarning,0826.2,5.01,000.00,029.2,027.5,000.0,037.5,030.9,20.1,0000.0,0010.73,0003.62,0002.54
2023-05-31 00:54:00,SystemResetWarning,0826.2,5.00,000.00,029.2,027.6,000.0,037.5,030.9,20.5,0000.0,0010.91,0003.61,0002.54
2023-05-31 00:55:00,SystemResetWarning,0826.2,5.01,000.00,029.2,027.7,000.0,037.5,030.9,20.6,0000.0,0010.35,0003.56,0002.52
2023-05-31 00:56:00,SystemResetWarning,0826.1,5.00,000.00,029.3,027.8,000.0,037.5,030.9,20.0,0000.0,0010.05,0003.50,0002.51
2023-05-31 00:57:00,SystemResetWarning,0826.1,5.00,000.00,029.3,027.8,000.0,037.6,030.9,19.7,0000.0,0009.76,0003.53,0002.51
2023-05-31 00:58:00,SystemResetWarning,0826.1,5.00,000.00,029.3,027.9,000.0,037.6,031.0,19.7,0000.0,0009.12,0003.55,0002.52
2023-05-31 00:59:00,SystemResetWarning,0826.0,5.00,000.00,029.3,028.0,000.0,037.6,031.0,19.9,0000.0,0010.00,0003.56,0002.52
